Regional Weather Roundup
Issued by NWS Grand Forks, ND

Home | Current Version | Previous Version | Graphics & Text | Print | Product List | Glossary On
Versions: 1 2 3 4 5 6 7 8 9 10 11 12 13 14 15 16 17 18 19 20 21 22 23 24 25 26 27 28 29 30 31 32 33 34 35 36 37 38 39 40 41 42 43 44 45 46 47 48 49 50
000
ASUS43 KFGF 160731
RWRFGF
PRAIRIE TO PINES  WEATHER ROUNDUP
NATIONAL WEATHER SERVICE EASTERN NORTH DAKOTA/GRAND FORKS ND
200 AM CDT WED AUG 16 2017

 **SATELLITE DATA USED TO AUGMENT SKY COVER AT AUTOMATED STATIONS**
 *****  WEATHER ACROSS EASTERN NORTH DAKOTA  *****

CITY           SKY/WX    TMP DP  RH WIND       PRES   REMARKS
GRAND FORKS    LGT RAIN  66  64  93 E8        29.88S
GRAND FRKS AFB CLOUDY    64  63  94 E5        29.88F
DEVILS LAKE    HVY RAIN  61  61 100 E15       29.86F FOG
FARGO          CLOUDY    67  60  78 SE9       29.87S
WAHPETON ARPT  CLOUDY    63  59  88 SE6       29.87F
$$

 ***** WEATHER ACROSS CENTRAL AND WESTERN NORTH DAKOTA  *****

CITY           SKY/WX    TMP DP  RH WIND       PRES   REMARKS
BISMARCK       CLOUDY    63  61  93 NW10      29.86S
MINOT          FOG       60  59  96 CALM      29.88S VSB 1/4
JAMESTOWN      LGT RAIN  64  62  93 SE12      29.82F
MINOT AFB      FOG       54  54  99 CALM      29.88R VSB 1/4
GARRISON         N/A     57  57 100 N5        29.89R
WILLISTON      FAIR      60  57  89 NE3       29.90R
DICKINSON      CLOUDY    60  60 100 NW5       29.92R FOG
HETTINGER      FOG       60  59  96 NW8       29.94R VSB 1/4
$$

 *****  OTHER AIRPORT OBSERVATIONS IN OUR AREA  *****

CITY           SKY/WX    TMP DP  RH WIND       PRES   REMARKS
WALHALLA       FAIR      61  61 100 NE3       29.90F
GRAFTON AIRPOR PTSUNNY   63  63 100 NE3       29.91S
VALLEY CITY AR   N/A     63  63 100 SE10      29.85F
CANDO          PTSUNNY   61  61 100 E7        29.90S
CAVALIER APRT  FAIR      63  61  94 NE6       29.89F
GWINNER        PTSUNNY   63  63 100 CALM      29.85S
SHEYENNE NWR     N/A     63  62  97 SE6       29.95S
ROLLA          CLOUDY    61  61 100 SE6       29.91S
 ***** THE ABOVE OBSERVATIONS ARE NON NWS ARE NOT QUALITY
       CONTROLLED AND MAY MIS-REPORT RAIN FOR SNOW...
$$

  *****  WEATHER ACROSS NORTHERN MINNESOTA  *****

CITY           SKY/WX    TMP DP  RH WIND       PRES   REMARKS
FLAG ISLAND    CLOUDY    70  63  78 CALM      29.92S
WARROAD        MOCLDY    64  61  88 CALM      29.94S
ROSEAU         FAIR      66  61  82 CALM      29.93S
HALLOCK        CLOUDY    64  63  94 CALM      29.90F
THF RVR FALLS  CLOUDY    66  60  81 E7        29.93S
BAUDETTE       CLOUDY    66  60  81 S3        29.94S
WASKISH        CLOUDY    64  61  88 SE3       29.96R
CROOKSTON      CLOUDY    66  61  82 SE5       29.91S
STEPHEN NDAWN    N/A     63  63 100 E2          N/A
GREENBUSH NDAW   N/A    N/A N/A N/A E1          N/A
$$
  *****  WEATHER ACROSS CENTRAL AND WEST MINNESOTA  *****

CITY           SKY/WX    TMP DP  RH WIND       PRES   REMARKS
FOSSTON          N/A     64  57  77 CALM      29.94R
BEMIDJI        MOCLDY    65  60  85 SE6       29.95R
PARK RAPIDS    CLOUDY    66  57  72 SE8       29.94R
ELBOW LAKE     FAIR      64  61  89 SE9       29.89F
WADENA         FAIR      63  57  82 SE5       29.92S
DETROIT LAKES  FAIR      64  59  82 SE10      29.92F
MOORHEAD       FAIR      64  59  82 SE5       29.87F
FERGUS FALLS   FAIR      66  61  82 SE9       29.88F
MORRIS MN      CLOUDY    64  63  94 SE10      29.87F
STAPLES        MOCLDY    63  55  77 CALM      29.93S
$$
  *****  WEATHER ELSEWHERE ACROSS MINNESOTA  *****

CITY           SKY/WX    TMP DP  RH WIND       PRES   REMARKS
DULUTH         FAIR      57  56  96 E10       30.02S
INTRNTL FALLS  MOCLDY    65  58  78 VRB5      29.96F
ELY            FAIR      50  46  87 CALM      30.03S
CLOQUET        FAIR      59  55  88 E7        30.00S
WHEATON        CLOUDY    63  61  94 E9        29.88F
BRAINERD       CLOUDY    64  58  80 SE3       29.95S
HIBBING        FAIR      55  50  83 E5        30.00F
ALEXANDRIA     FAIR      63  59  87 SE9       29.93R
SAINT CLOUD    FAIR      63  60  90 E7        29.94S
MINNEAPOLIS    MOCLDY    67  61  81 SE5       29.95R
$$

  *****  WEATHER ACROSS SOUTH DAKOTA  *****

CITY           SKY/WX    TMP DP  RH WIND       PRES   REMARKS
SIOUX FALLS    MOCLDY    67  66  97 SE8       29.87R
BROOKINGS      CLOUDY    65  63  93 SE12      29.86F
WATERTOWN      CLOUDY    64  63  96 SE9       29.85F
HURON          CLOUDY    66  65  96 S9        29.83R
SISSETON         N/A     65  63  93 SE9       29.84F
ABERDEEN       CLOUDY    65  64  97 S5        29.83F
MITCHELL       LGT RAIN  67  66  97 S7        29.87R FOG
PIERRE         MOCLDY    67  65  93 S5        29.82R
MOBRIDGE       CLOUDY    66  64  93 NW6       29.82R
RAPID CITY     FAIR      60  55  83 NW9       29.95R
$$

  *****  SOME WEATHER IN NEARBY STATES *****

CITY           SKY/WX    TMP DP  RH WIND       PRES   REMARKS
GLASGOW MT     FAIR      59  39  47 E9        29.90R
GREAT FALLS MT FAIR      63  34  33 E9        29.92S
CHEYENNE WY    FAIR      54  44  69 NW10      30.07S
SCOTTSBLUFF NE CLOUDY    61  56  83 NW5       30.00R
OMAHA NE       MOCLDY    71  65  81 SE12      29.84F
DES MOINES IA  CLOUDY    70  68  93 SE8       29.87F
DAVENPORT IA   FAIR      69  66  90 E12       29.96F
CHICAGO IL     MOCLDY    69  62  78 NE6       29.99F
EAU CLAIRE WI  FAIR      64  57  78 E7        29.98S
LA CROSSE WI   FAIR      69  62  78 E5        29.97R
$$

  *****  SOME NATIONAL WEATHER *****

CITY           SKY/WX    TMP DP  RH WIND       PRES   REMARKS
LA GUARDIA NY  MOCLDY    72  71  97 SW5       29.91R
RALEIGH NC     FAIR      75  74  96 CALM      29.93F
ATLANTA GA     MOCLDY    75  71  87 W7        30.02S
NEW ORLEANS LA MOCLDY    77  75  93 S5        29.99F
OKLAHOMA CITY  MOCLDY    73  71  93 S6        29.84F
ALBUQUERQUE NM FAIR      70  38  31 CALM      30.08S
SALT LAKE CITY FAIR      66  36  32 S7        29.98S
LOS ANGELES CA CLOUDY    68  60  75 W7        29.93R
BOISE ID       FAIR      68  37  32 SE6       29.90R
SEATTLE WA     FAIR      66  48  52 NE15      30.03R
$$

*** WEATHER ACROSS MANITOBA...SASKATCHEWAN AND ONTARIO ***
                ***ONTARIO***

CITY           SKY/WX    TMP DP  RH WIND       PRES   REMARKS
GERALDTON      CLEAR     48  48 100 SW2       30.04R
THUNDER BAY    PTCLDY    48  48 100 W3        30.05S
SIOUX LOOKOUT  MOCLDY    63  57  82 S5        29.97S
TORONTO        CLEAR     64  57  77 N10       29.99R
BIG TROUT LK   CLEAR     55  55 100 W3        29.94F
PICKLE LAKE    NOT AVBL
DRYDEN         CLOUDY    66  57  72 S9        29.96S
KENORA         MOCLDY    66  61  82 VRB2      29.94S
$$
                *** MANITOBA***

CITY           SKY/WX    TMP DP  RH WIND       PRES   REMARKS
BRANDON        MOCLDY    61  61 100 SE3       29.89R
DAUPHIN        MOCLDY    61  57  88 SW5       29.84F
ISLAND LAKE    CLOUDY    66  57  72 SE6       29.90S
PILOT MOUND      N/A     61  59  94 SE9         N/A
THE PAS        PTCLDY    63  59  88 S5        29.79R
THOMPSON       CLEAR     63  52  67 E2        29.82F
WINNIPEG       LGT RAIN  64  63  94 VRB2      29.91F
LYNN LAKE      CLOUDY    64  55  72 MISG      29.76S
CHURCHILL      CLEAR     63  57  82 S8        29.79S
GILLAM         CLEAR     57  50  77 S6        29.86F
$$
                ***SASKATCHEWAN***

CITY           SKY/WX    TMP DP  RH WIND       PRES   REMARKS
ESTEVAN        PTCLDY    50  50 100 N5        29.90S
KINDERSLEY     PTCLDY    48  45  87 S3        29.89S
LLOYDMINSTER   CLEAR     50  46  87 W10       29.83R
PRINCE ALBERT  PTCLDY    54  50  87 W6        29.79F
REGINA         CLEAR     50  46  87 SE6       29.89S
YORKTON        CLEAR     57  52  82 W5        29.87S
N. BATTLEFORD  CLEAR     50  45  81 W6        29.84R
LA RONGE       MOCLDY    57  52  82 S9        29.68F
SASKATOON      CLEAR     50  46  87 SW9       29.85R
SWIFT CURRENT  CLEAR     50  41  71 S9        29.91S
$$
NOTE: THESE ARE AUTOMATED STATIONS WITH LIMITED QUALITY CONTROL
      "FAIR" INDICATES FEW OR NO CLOUDS BELOW 12,000 FEET WITH NO
      SIGNIFICANT WEATHER AND/OR OBSTRUCTIONS TO VISIBILITY.
      SKY/WX - SKY CONDITION AND SIGNIFICANT WEATHER.
      TMP - AIR TEMPERATURE.    DP   - DEWPOINT TEMPERATURE.
      RH  - RELATIVE HUMIDITY.  PRES - PRESSURE.
      HX  - HEAT INDEX.         WCI  - WIND CHILL INDEX.
$



USA.gov is the U.S. government's official web portal to all federal, state and local government web resources and services.